This is the latest recevied weather packets stored in our database for station/object N9LYA-3. If no packets are shown the sender has not sent any weather packets the latest 1 day(s).
| Time | Temp. | Humidity | Pressure | Rain* | Wind** | Luminosity | Snow |
|---|---|---|---|---|---|---|---|
| 1778102624 | 16.67° C | 74% | 1016.1 hPa | 0 mm | - | - | - |
| 1778091284 | 15.56° C | 76% | 1016.2 hPa | 0 mm | - | - | - |
| 1778091105 | 15.56° C | 76% | 1016.2 hPa | 0 mm | - | - | - |
| 1778086064 | 13.89° C | 76% | 1017.4 hPa | 0 mm | - | - | - |
| 1778081924 | 13.89° C | 78% | 1017.4 hPa | 0 mm | - | - | - |
| 1778081384 | 13.89° C | 78% | 1016.4 hPa | 0 mm | - | - | - |
| 1778078864 | 11.67° C | 84% | 1016.5 hPa | 0 mm | - | - | - |
| 1778073826 | 10° C | 99% | 1015.7 hPa | 0 mm | - | - | - |
| 1778073285 | 8.89° C | 99% | 1015.8 hPa | 0 mm | - | - | - |
| 1778070224 | 8.89° C | 99% | 1015.8 hPa | 0 mm | - | - | - |
| 1778067525 | 7.78° C | 99% | 1015.9 hPa | 0 mm | - | - | - |
| 1778067165 | 7.78° C | 99% | 1014.9 hPa | 0 mm | - | - | - |
| 1778066985 | 7.78° C | 99% | 1014.9 hPa | 0 mm | - | - | - |
| 1778066805 | 7.78° C | 99% | 1014.9 hPa | 0 mm | - | - | - |
| 1778066265 | 7.78° C | 99% | 1014.9 hPa | 0 mm | - | - | - |
| 1778066085 | 7.78° C | 99% | 1014.9 hPa | 0 mm | - | - | - |
| 1778065365 | 7.78° C | 99% | 1013.8 hPa | 0 mm | - | - | - |
| 1778064645 | 7.78° C | 99% | 1013.9 hPa | 0 mm | - | - | - |
| 1778064105 | 7.78° C | 99% | 1013.9 hPa | 0 mm | - | - | - |
| 1778063385 | 7.78° C | 99% | 1013.9 hPa | 0 mm | - | - | - |
| 1778063026 | 7.78° C | 99% | 1013.9 hPa | 0 mm | - | - | - |
| 1778062845 | 7.78° C | 99% | 1013.9 hPa | 0 mm | - | - | - |
| 1778062665 | 7.78° C | 99% | 1013.9 hPa | 0 mm | - | - | - |
| 1778062485 | 7.78° C | 99% | 1013.9 hPa | 0 mm | - | - | - |
| 1778061945 | 7.78° C | 99% | 1013.9 hPa | 0 mm | - | - | - |
* Rain latest hour (hover to see other rain measurements)
** Current wind speed in m/s (hover to see current wind gust speed)